Location: Newark
(44.3248°N, 23.7839°E)
Time: 16:17:31
(UTC+00:00)

FO-29 - Pass Details

Date: 26 April 2024
Orbit: 801 x 1320 km, 98.6° (Epoch: 19 May)

Event Time Altitude Azimuth Distance (km) Brightness Sun altitude
Rises 02:04:18 0° 4° (N) 4,197 13.4 -13.3°
Reaches altitude 10° 02:07:28 10° 352° (N) 3,279 12.6 -12.8°
Maximum altitude 02:13:18 25° 303° (WNW) 2,400 11.3 -12.0°
Enters shadow 02:18:44 12° 256° (WSW) 3,207 11.6 -11.1°
